Anchorage, AK

1:27 AM AKDT on March 30, 2017 (GMT -0800)
Ted Stevens Anchorage Int'l Airport

Weather History for PANC - February, 2014

Change the Weather History Date:

Saturday, February 1, 2014

  Actual Average Record
Temperature  
Mean Temperature 17 °F 18 °F  
Max Temperature 22 °F 24 °F 46 °F (2007)
Min Temperature 12 °F 12 °F -16 °F (1993)
Degree Days  
Heating Degree Days 48    
Month to date heating degree days 48  
Since 1 July heating degree days 5503  
Cooling Degree Days 0    
Month to date cooling degree days 0  
Year to date cooling degree days 0  
Moisture  
Dew Point 16 °F    
Average Humidity 88    
Maximum Humidity 96    
Minimum Humidity 80    
Precipitation  
Precipitation 0.00 in 0.03 in 0.70 in (1980)
Month to date precipitation 0.00 0.03  
Year to date precipitation 1.37 0.76  
Snow  
Snow 0.00 in 0.40 in 11.80 in (1980)
Month to date snowfall 0.0 0.4  
Since 1 July snowfall 43.5 49.8  
Snow Depth 5.00 in    
Sea Level Pressure  
Sea Level Pressure 30.37 in    
Wind  
Wind Speed 1 mph (ESE)    
Max Wind Speed 5 mph    
Max Gust Speed -    
Visibility 4 miles    
Events Fog    
T = Trace of Precipitation, MM = Missing Value Source: NWS Daily Summary

Daily Weather History Graph

Daily Weather History Graph

Search for Another Location

Airport or City:

Trip Planner

Search our weather history database for the weather conditions in past years. The results will help you decide how hot, cold, wet, or windy it might be!

Date:

Astronomy

Feb. 01, 2014 Rise Set
Actual Time 9:19 AM AKST 5:08 PM AKST
Civil Twilight 8:30 AM AKST 5:58 PM AKST
Nautical Twilight 7:37 AM AKST 6:50 PM AKST
Astronomical Twilight 6:47 AM AKST 7:41 PM AKST
Moon 9:22 AM AKST (2/1) 8:57 PM AKST (2/1)
Length of Visible Light 9h 27m
Length of Day
7h 48m
Waxing Crescent, 6% of the Moon is Illuminated
Feb 1
Waxing Crescent
Feb 6
First Quarter
Feb 14
Full
Feb 22
Last Quarter
Feb 28
New

Hourly Weather History & Observations

Time (AKST) Temp. Windchill Dew Point Humidity Pressure Visibility Wind Dir Wind Speed Gust Speed Precip Events Conditions
12:53 AM 15.1 °F - 12.0 °F 88% 30.32 in 10.0 mi Calm Calm - N/A   Clear
1:53 AM 15.1 °F - 12.0 °F 88% 30.33 in 10.0 mi Calm Calm - N/A   Clear
3:53 AM 14.0 °F - 10.9 °F 88% 30.34 in 10.0 mi Calm Calm - N/A   Clear
4:53 AM 14.0 °F 8.2 °F 10.9 °F 88% 30.35 in 10.0 mi SSE 3.5 mph - N/A   Clear
5:42 AM 12.2 °F - 10.4 °F 92% 30.33 in 10.0 mi Calm Calm - N/A   Partly Cloudy
5:53 AM 15.1 °F - 12.0 °F 88% 30.34 in 10.0 mi Calm Calm - N/A   Partly Cloudy
6:43 AM 15.8 °F - 14.0 °F 93% 30.33 in 0.2 mi Calm Calm - N/A   Mostly Cloudy
6:53 AM 15.1 °F 9.4 °F 14.0 °F 95% 30.34 in 0.2 mi East 3.5 mph - N/A Fog Light Freezing Fog
7:07 AM 15.8 °F - 15.8 °F 100% 30.33 in 0.2 mi Calm Calm - N/A Fog Light Freezing Fog
7:20 AM 15.8 °F 10.2 °F 12.2 °F 86% 30.33 in 0.2 mi East 3.5 mph - N/A Fog Light Freezing Fog
7:43 AM 15.8 °F - 12.2 °F 86% 30.33 in 0.2 mi Calm Calm - N/A Fog Light Freezing Fog
7:53 AM 17.1 °F - 15.1 °F 92% 30.35 in 0.2 mi Calm Calm - N/A Fog Light Freezing Fog
8:29 AM 17.6 °F 12.3 °F 15.8 °F 93% 30.34 in 0.2 mi Variable 3.5 mph - N/A   Mostly Cloudy
8:53 AM 19.0 °F - 18.0 °F 96% 30.35 in 0.2 mi Calm Calm - N/A Fog Light Freezing Fog
9:03 AM 17.6 °F - 15.8 °F 93% 30.34 in 0.2 mi Calm Calm - 0.01 in Fog Light Freezing Fog
9:53 AM 21.0 °F - 19.0 °F 92% 30.36 in 0.2 mi Calm Calm - 0.01 in Fog Light Freezing Fog
10:17 AM 21.2 °F - 19.4 °F 93% 30.35 in 0.2 mi Calm Calm - N/A Fog Light Freezing Fog
10:38 AM 21.2 °F - 19.4 °F 93% 30.35 in 0.2 mi Calm Calm - N/A Fog Light Freezing Fog
10:53 AM 21.9 °F - 19.9 °F 92% 30.37 in 0.2 mi Calm Calm - N/A Fog Light Freezing Fog
11:53 AM 23.0 °F - 21.0 °F 92% 30.38 in 0.2 mi Calm Calm - N/A Fog Light Freezing Fog
12:53 PM 23.0 °F - 21.0 °F 92% 30.39 in 0.2 mi Calm Calm - N/A Fog Light Freezing Fog
1:27 PM 24.8 °F - 21.2 °F 86% 30.38 in 0.2 mi Calm Calm - N/A Fog Light Freezing Fog
1:53 PM 24.1 °F - 21.0 °F 88% 30.40 in 0.2 mi Calm Calm - N/A Fog Light Freezing Fog
2:15 PM 23.0 °F 18.4 °F 21.2 °F 93% 30.38 in 5.0 mi SE 3.5 mph - N/A Fog Mostly Cloudy
2:20 PM 23.0 °F 18.4 °F 21.2 °F 93% 30.38 in 5.0 mi ESE 3.5 mph - N/A Fog Mostly Cloudy
2:53 PM 23.0 °F - 21.0 °F 92% 30.40 in 5.0 mi Calm Calm - N/A Fog Mostly Cloudy
3:53 PM 21.9 °F - 19.9 °F 92% 30.39 in 6.0 mi Calm Calm - N/A Fog Mostly Cloudy
4:53 PM 19.9 °F - 18.0 °F 92% 30.39 in 6.0 mi Calm Calm - N/A Fog Mostly Cloudy
5:53 PM 17.1 °F - 14.0 °F 88% 30.39 in 6.0 mi Calm Calm - N/A Fog Mostly Cloudy
6:51 PM 19.4 °F - 17.6 °F 93% 30.38 in 6.0 mi Calm Calm - N/A   Mostly Cloudy
6:53 PM 19.9 °F - 17.1 °F 89% 30.39 in 6.0 mi Calm Calm - N/A   Mostly Cloudy
7:53 PM 17.1 °F 11.7 °F 12.9 °F 84% 30.40 in 6.0 mi SSE 3.5 mph - N/A   Mostly Cloudy
8:53 PM 17.1 °F 10.0 °F 12.9 °F 84% 30.40 in 6.0 mi ESE 4.6 mph - N/A   Mostly Cloudy
9:22 PM 17.6 °F 10.7 °F 12.2 °F 79% 30.39 in 1.0 mi ESE 4.6 mph - N/A   Mostly Cloudy
9:34 PM 19.4 °F 14.3 °F 15.8 °F 86% 30.39 in 1.0 mi East 3.5 mph - N/A   Mostly Cloudy
9:40 PM 19.4 °F 14.3 °F 15.8 °F 86% 30.39 in 0.2 mi East 3.5 mph - N/A Fog Light Freezing Fog
9:53 PM 18.0 °F 12.7 °F 16.0 °F 92% 30.41 in 0.2 mi East 3.5 mph - N/A Fog Light Freezing Fog
10:07 PM 17.6 °F - 15.8 °F 93% 30.40 in 0.2 mi Calm Calm - N/A Fog Light Freezing Fog
10:48 PM 17.6 °F 10.7 °F 14.0 °F 86% 30.40 in 1.2 mi SSE 4.6 mph - N/A   Mostly Cloudy
10:53 PM 17.1 °F 11.7 °F 14.0 °F 88% 30.41 in 5.0 mi SE 3.5 mph - N/A   Mostly Cloudy
10:56 PM 17.6 °F - 15.8 °F 93% 30.40 in 5.0 mi Calm Calm - N/A   Mostly Cloudy
11:53 PM 16.0 °F 10.4 °F 12.9 °F 88% 30.41 in 10.0 mi SE 3.5 mph - N/A   Partly Cloudy